HAZ3901 ZGGG-ZYHB

Flight info

Callsign HAZ3901
Flight time 3h 32m
Altitude 41100
Route MIKIP9 MIKIP A461 BUBDA W56 VYK G212 SOTMU B339 HUR B334 TGO G212 RUSBO W203 PIGAM PIG39A
Aircraft A359/H-SDE2E3GHIJ3J4J5LM1ORWXY/LB1D1

Departure

Time 2026-05-04 03:11
Airport Guangzhou Baiyun International Airport (ZGGG)

Arrival

Time 2026-05-04 06:44
Airport Harbin Taiping International Airport (ZYHB)
Time Latitude Longitude Altitude Speed Heading
2026-05-04 02:39 23.39995 113.30458 65 ft 0 kts 284°
2026-05-04 02:59 23.39992 113.30469 55 ft 4 kts 284°
2026-05-04 03:00 23.39986 113.30498 55 ft 4 kts 284°
2026-05-04 03:00 23.39980 113.30520 55 ft 4 kts 298°
2026-05-04 03:00 23.39967 113.30539 55 ft 4 kts 334°
2026-05-04 03:00 23.39946 113.30545 55 ft 4 kts
2026-05-04 03:01 23.39920 113.30542 55 ft 2 kts 13°
2026-05-04 03:01 23.39918 113.30541 55 ft 0 kts 13°
2026-05-04 03:04 23.39925 113.30543 65 ft 4 kts 12°
2026-05-04 03:04 23.39964 113.30570 59 ft 10 kts 55°
2026-05-04 03:05 23.39967 113.30660 58 ft 15 kts 103°
2026-05-04 03:05 23.39916 113.30756 55 ft 14 kts 169°
2026-05-04 03:05 23.39804 113.30736 58 ft 20 kts 193°
2026-05-04 03:05 23.39651 113.30693 60 ft 25 kts 194°
2026-05-04 03:06 23.39462 113.30642 60 ft 30 kts 194°
2026-05-04 03:06 23.39302 113.30599 57 ft 16 kts 193°
2026-05-04 03:06 23.39173 113.30565 60 ft 23 kts 193°
2026-05-04 03:06 23.39006 113.30520 57 ft 20 kts 185°
2026-05-04 03:07 23.38966 113.30551 57 ft 9 kts 117°
2026-05-04 03:07 23.38943 113.30635 63 ft 15 kts 103°
2026-05-04 03:07 23.38862 113.30682 57 ft 16 kts 191°
2026-05-04 03:07 23.38736 113.30647 60 ft 22 kts 194°
2026-05-04 03:08 23.38567 113.30601 58 ft 28 kts 194°
2026-05-04 03:08 23.38398 113.30556 58 ft 18 kts 193°
2026-05-04 03:08 23.38256 113.30518 56 ft 24 kts 194°
2026-05-04 03:08 23.38182 113.30498 55 ft 1 kts 194°
2026-05-04 03:09 23.38150 113.30489 57 ft 9 kts 194°
2026-05-04 03:09 23.38061 113.30465 60 ft 17 kts 194°
2026-05-04 03:09 23.37926 113.30428 57 ft 23 kts 194°
2026-05-04 03:09 23.37750 113.30381 60 ft 29 kts 194°
2026-05-04 03:10 23.37638 113.30361 57 ft 8 kts 160°
2026-05-04 03:10 23.37607 113.30424 58 ft 13 kts 105°
2026-05-04 03:10 23.37605 113.30525 55 ft 13 kts 54°
2026-05-04 03:10 23.37699 113.30569 56 ft 18 kts 14°
2026-05-04 03:11 23.37900 113.30624 56 ft 61 kts 14°
2026-05-04 03:11 23.38585 113.30808 61 ft 139 kts 14°
2026-05-04 03:11 23.39713 113.31115 292 ft 186 kts 15°
2026-05-04 03:11 23.41007 113.31468 1104 ft 197 kts 13°
2026-05-04 03:12 23.42296 113.31821 2391 ft 181 kts 16°
2026-05-04 03:12 23.43471 113.32159 3520 ft 173 kts 18°
2026-05-04 03:12 23.44695 113.32528 4016 ft 197 kts 18°
2026-05-04 03:12 23.46125 113.32968 4400 ft 226 kts 16°
2026-05-04 03:13 23.47687 113.33432 5201 ft 238 kts 15°
2026-05-04 03:13 23.49311 113.33932 6035 ft 249 kts 14°
2026-05-04 03:13 23.51019 113.34459 6897 ft 260 kts 13°
2026-05-04 03:13 23.52783 113.34995 7849 ft 265 kts 12°
2026-05-04 03:14 23.54580 113.35536 8895 ft 270 kts 11°
2026-05-04 03:14 23.56422 113.36008 9921 ft 273 kts
2026-05-04 03:14 23.58300 113.36381 10852 ft 277 kts
2026-05-04 03:14 23.60203 113.36738 11740 ft 283 kts
2026-05-04 03:15 23.62162 113.37107 12687 ft 288 kts
2026-05-04 03:15 23.64159 113.37484 13566 ft 298 kts
2026-05-04 03:15 23.66242 113.37874 14018 ft 321 kts
2026-05-04 03:15 23.68521 113.38302 14407 ft 344 kts
2026-05-04 03:16 23.70944 113.38762 14789 ft 364 kts
2026-05-04 03:16 23.73511 113.39250 15188 ft 382 kts
2026-05-04 03:16 23.76166 113.39753 15783 ft 391 kts
2026-05-04 03:16 23.78867 113.40264 16447 ft 397 kts
2026-05-04 03:17 23.81606 113.40784 17133 ft 403 kts
2026-05-04 03:17 23.84122 113.41264 17773 ft 408 kts
2026-05-04 03:17 23.86936 113.41803 18407 ft 413 kts
2026-05-04 03:17 23.89789 113.42349 18790 ft 416 kts
2026-05-04 03:18 23.92662 113.42899 19323 ft 421 kts
2026-05-04 03:18 23.95562 113.43452 20010 ft 425 kts
2026-05-04 03:18 23.98489 113.44015 20727 ft 427 kts
2026-05-04 03:18 24.01426 113.44581 21416 ft 430 kts
2026-05-04 03:19 24.04384 113.45149 22102 ft 433 kts
2026-05-04 03:19 24.07366 113.45522 22725 ft 429 kts 354°
2026-05-04 03:19 24.10320 113.45377 23322 ft 424 kts 346°
2026-05-04 03:19 24.13258 113.45000 23990 ft 425 kts 344°
2026-05-04 03:20 24.16192 113.44586 24549 ft 429 kts 344°
2026-05-04 03:20 24.19175 113.44165 25090 ft 434 kts 344°
2026-05-04 03:20 24.22158 113.43751 25624 ft 440 kts 344°
2026-05-04 03:20 24.25202 113.43335 26170 ft 444 kts 344°
2026-05-04 03:21 24.28294 113.42915 26721 ft 449 kts 344°
2026-05-04 03:21 24.31415 113.42492 27274 ft 454 kts 344°
2026-05-04 03:21 24.34579 113.42125 27813 ft 463 kts 347°
2026-05-04 03:21 24.37838 113.42027 28357 ft 472 kts 350°
2026-05-04 03:22 24.41144 113.42049 28903 ft 478 kts 352°
2026-05-04 03:22 24.44492 113.42136 29437 ft 484 kts 352°
2026-05-04 03:22 24.47880 113.42256 29912 ft 490 kts 353°
2026-05-04 03:22 24.51309 113.42389 30407 ft 494 kts 353°
2026-05-04 03:23 24.54730 113.42520 30895 ft 497 kts 353°
2026-05-04 03:23 24.58225 113.42646 31354 ft 501 kts 352°
2026-05-04 03:23 24.61721 113.42760 31758 ft 505 kts 352°
2026-05-04 03:23 24.65245 113.42864 32164 ft 509 kts 352°
2026-05-04 03:24 24.68798 113.42967 32625 ft 511 kts 352°
2026-05-04 03:24 24.72360 113.43069 33007 ft 514 kts 352°
2026-05-04 03:24 24.75948 113.43170 33365 ft 518 kts 352°
2026-05-04 03:24 24.79557 113.43272 33704 ft 521 kts 352°
2026-05-04 03:25 24.83200 113.43376 34056 ft 524 kts 352°
2026-05-04 03:25 24.86831 113.43480 34488 ft 523 kts 352°
2026-05-04 03:25 24.90471 113.43588 34992 ft 521 kts 352°
2026-05-04 03:25 24.94087 113.43698 35523 ft 517 kts 352°
2026-05-04 03:26 24.97676 113.43805 36045 ft 514 kts 352°
2026-05-04 03:26 25.01248 113.43910 36542 ft 512 kts 352°
2026-05-04 03:26 25.04799 113.44012 37032 ft 510 kts 352°
2026-05-04 03:26 25.08292 113.44112 37509 ft 508 kts 352°
2026-05-04 03:27 25.11820 113.44212 37989 ft 506 kts 352°
2026-05-04 03:27 25.15330 113.44311 38458 ft 504 kts 352°
2026-05-04 03:27 25.18820 113.44411 38905 ft 502 kts 352°
2026-05-04 03:27 25.22292 113.44510 39265 ft 500 kts 352°
2026-05-04 03:28 25.25777 113.44609 39581 ft 498 kts 352°
2026-05-04 03:28 25.29247 113.44715 39882 ft 497 kts 353°
2026-05-04 03:28 25.32688 113.44831 40346 ft 493 kts 353°
2026-05-04 03:28 25.36100 113.44947 40831 ft 488 kts 353°
2026-05-04 03:29 25.39480 113.45058 41164 ft 487 kts 353°
2026-05-04 03:29 25.46248 113.45262 41242 ft 485 kts 353°
2026-05-04 03:30 25.51850 113.45422 41243 ft 485 kts 353°
2026-05-04 03:30 25.58592 113.45613 41245 ft 485 kts 353°
2026-05-04 03:31 25.65340 113.45806 41256 ft 485 kts 353°
2026-05-04 03:31 25.72078 113.46000 41245 ft 485 kts 353°
2026-05-04 03:32 25.78817 113.46195 41246 ft 485 kts 352°
2026-05-04 03:32 25.85568 113.46389 41246 ft 485 kts 352°
2026-05-04 03:33 25.92281 113.46335 41242 ft 481 kts 349°
2026-05-04 03:33 25.98954 113.46036 41242 ft 480 kts 348°
2026-05-04 03:34 26.05582 113.45729 41244 ft 480 kts 349°
2026-05-04 03:34 26.12258 113.45449 41240 ft 480 kts 349°
2026-05-04 03:35 26.18936 113.45191 41238 ft 481 kts 349°
2026-05-04 03:35 26.25617 113.44942 41238 ft 480 kts 349°
2026-05-04 03:36 26.32307 113.44689 41238 ft 480 kts 349°
2026-05-04 03:36 26.38979 113.44433 41238 ft 480 kts 349°
2026-05-04 03:37 26.45657 113.44176 41239 ft 480 kts 348°
2026-05-04 03:37 26.52332 113.43919 41233 ft 480 kts 348°
2026-05-04 03:38 26.59004 113.43663 41230 ft 480 kts 348°
2026-05-04 03:38 26.65684 113.43408 41224 ft 480 kts 348°
2026-05-04 03:39 26.72305 113.43154 41230 ft 479 kts 348°
2026-05-04 03:39 26.79016 113.42900 41221 ft 479 kts 348°
2026-05-04 03:40 26.85642 113.42651 41231 ft 480 kts 348°
2026-05-04 03:40 26.92306 113.42389 41231 ft 479 kts 348°
2026-05-04 03:41 26.98979 113.42128 41229 ft 479 kts 348°
2026-05-04 03:41 27.05642 113.41869 41230 ft 479 kts 348°
2026-05-04 03:42 27.12313 113.41611 41227 ft 480 kts 348°
2026-05-04 03:42 27.18979 113.41353 41226 ft 480 kts 348°
2026-05-04 03:43 27.25658 113.41094 41225 ft 480 kts 348°
2026-05-04 03:43 27.32336 113.40839 41227 ft 481 kts 348°
2026-05-04 03:44 27.39065 113.40794 41227 ft 485 kts 349°
2026-05-04 03:44 27.45821 113.40907 41216 ft 486 kts 350°
2026-05-04 03:45 27.52595 113.41058 41227 ft 487 kts 350°
2026-05-04 03:45 27.59368 113.41204 41225 ft 487 kts 350°
2026-05-04 03:46 27.66150 113.41365 41225 ft 490 kts 351°
2026-05-04 03:46 27.72988 113.41877 41225 ft 494 kts 354°
2026-05-04 03:47 27.79844 113.42550 41225 ft 495 kts 354°
2026-05-04 03:47 27.86702 113.43206 41224 ft 494 kts 353°
2026-05-04 03:48 27.93554 113.43825 41223 ft 494 kts 353°
2026-05-04 03:48 28.00403 113.44423 41225 ft 494 kts 353°
2026-05-04 03:49 28.07210 113.45013 41228 ft 494 kts 353°
2026-05-04 03:49 28.14050 113.45559 41225 ft 492 kts 352°
2026-05-04 03:50 28.20888 113.46038 41230 ft 492 kts 352°
2026-05-04 03:50 28.27713 113.46511 41228 ft 492 kts 352°
2026-05-04 03:51 28.34542 113.46996 41227 ft 492 kts 352°
2026-05-04 03:51 28.41364 113.47487 41226 ft 491 kts 352°
2026-05-04 03:52 28.48190 113.47976 41229 ft 491 kts 352°
2026-05-04 03:52 28.55018 113.48463 41225 ft 491 kts 352°
2026-05-04 03:53 28.61838 113.48950 41218 ft 491 kts 352°
2026-05-04 03:53 28.68661 113.49437 41223 ft 491 kts 352°
2026-05-04 03:54 28.75481 113.49927 41225 ft 491 kts 352°
2026-05-04 03:54 28.82306 113.50417 41223 ft 491 kts 352°
2026-05-04 03:55 28.89132 113.50907 41219 ft 492 kts 352°
2026-05-04 03:55 28.95964 113.51398 41222 ft 492 kts 352°
2026-05-04 03:56 29.02792 113.51892 41222 ft 492 kts 352°
2026-05-04 03:56 29.09630 113.52384 41226 ft 493 kts 352°
2026-05-04 03:57 29.16470 113.52876 41220 ft 493 kts 352°
2026-05-04 03:57 29.23274 113.53369 41218 ft 493 kts 352°
2026-05-04 03:58 29.33533 113.54165 41220 ft 494 kts 353°
2026-05-04 03:58 29.40394 113.54764 41212 ft 494 kts 353°
2026-05-04 03:59 29.47259 113.55369 41222 ft 495 kts 353°
2026-05-04 03:59 29.54126 113.55969 41219 ft 495 kts 353°
2026-05-04 04:00 29.60992 113.56566 41223 ft 494 kts 353°
2026-05-04 04:00 29.67843 113.57161 41217 ft 494 kts 353°
2026-05-04 04:01 29.74704 113.57758 41214 ft 494 kts 353°
2026-05-04 04:01 29.81557 113.58356 41217 ft 494 kts 353°
2026-05-04 04:02 29.88410 113.58955 41216 ft 493 kts 353°
2026-05-04 04:02 29.95275 113.60163 41214 ft 512 kts
2026-05-04 04:03 30.02032 113.63117 41212 ft 522 kts 13°
2026-05-04 04:03 30.08718 113.66461 41208 ft 524 kts 14°
2026-05-04 04:04 30.15392 113.69858 41208 ft 524 kts 13°
2026-05-04 04:04 30.22071 113.73228 41214 ft 524 kts 13°
2026-05-04 04:05 30.28766 113.76585 41207 ft 524 kts 13°
2026-05-04 04:05 30.35464 113.79942 41202 ft 524 kts 13°
2026-05-04 04:06 30.42158 113.83301 41212 ft 525 kts 13°
2026-05-04 04:06 30.48858 113.86670 41215 ft 525 kts 13°
2026-05-04 04:07 30.55558 113.90046 41211 ft 525 kts 13°
2026-05-04 04:07 30.62256 113.93425 41204 ft 525 kts 13°
2026-05-04 04:08 30.68934 113.96707 41207 ft 524 kts 12°
2026-05-04 04:08 30.75610 114.00206 41205 ft 529 kts 16°
2026-05-04 04:09 30.82237 114.03911 41210 ft 528 kts 16°
2026-05-04 04:09 30.88879 114.07557 41208 ft 527 kts 15°
2026-05-04 04:10 30.95526 114.11165 41214 ft 527 kts 15°
2026-05-04 04:10 31.02172 114.14770 41206 ft 527 kts 15°
2026-05-04 04:11 31.08812 114.18375 41203 ft 526 kts 15°
2026-05-04 04:11 31.15454 114.21987 41204 ft 527 kts 15°
2026-05-04 04:12 31.22092 114.25603 41202 ft 527 kts 15°
2026-05-04 04:12 31.28744 114.29234 41184 ft 527 kts 16°
2026-05-04 04:13 31.35486 114.32387 41182 ft 513 kts
2026-05-04 04:13 31.38950 114.33126 41186 ft 499 kts 356°
2026-05-04 04:13 31.42398 114.33441 41186 ft 495 kts 354°
2026-05-04 04:14 31.49264 114.33733 41184 ft 493 kts 352°
2026-05-04 04:14 31.56111 114.33882 41182 ft 492 kts 351°
2026-05-04 04:15 31.62962 114.34044 41178 ft 493 kts 352°
2026-05-04 04:15 31.69826 114.34237 41174 ft 493 kts 352°
2026-05-04 04:16 31.76685 114.34446 41174 ft 493 kts 352°
2026-05-04 04:16 31.83547 114.34656 41170 ft 493 kts 352°
2026-05-04 04:17 31.90363 114.34862 41169 ft 493 kts 352°
2026-05-04 04:17 31.97229 114.35068 41164 ft 493 kts 352°
2026-05-04 04:18 32.04082 114.35275 41162 ft 493 kts 352°
2026-05-04 04:18 32.10954 114.35483 41159 ft 493 kts 352°
2026-05-04 04:19 32.17815 114.35691 41157 ft 493 kts 352°
2026-05-04 04:19 32.23518 114.35865 41156 ft 493 kts 352°
2026-05-04 04:20 32.31560 114.36309 41154 ft 497 kts 354°
2026-05-04 04:20 32.37279 114.36804 41147 ft 498 kts 355°
2026-05-04 04:21 32.44197 114.37457 41153 ft 498 kts 355°
2026-05-04 04:21 32.51105 114.38106 41149 ft 498 kts 355°
2026-05-04 04:22 32.58013 114.38744 41152 ft 498 kts 355°
2026-05-04 04:22 32.64924 114.39378 41148 ft 498 kts 355°
2026-05-04 04:23 32.71836 114.40017 41151 ft 498 kts 355°
2026-05-04 04:23 32.78743 114.40660 41150 ft 498 kts 355°
2026-05-04 04:24 32.85659 114.41306 41145 ft 498 kts 355°
2026-05-04 04:24 32.92573 114.41952 41146 ft 499 kts 355°
2026-05-04 04:25 32.99495 114.42599 41152 ft 499 kts 355°
2026-05-04 04:25 33.06414 114.43248 41151 ft 499 kts 355°
2026-05-04 04:26 33.13333 114.43897 41153 ft 499 kts 355°
2026-05-04 04:26 33.20255 114.44548 41154 ft 499 kts 355°
2026-05-04 04:27 33.27180 114.45200 41150 ft 499 kts 355°
2026-05-04 04:27 33.34052 114.45846 41153 ft 499 kts 355°
2026-05-04 04:28 33.40972 114.46497 41158 ft 499 kts 355°
2026-05-04 04:28 33.47891 114.47148 41153 ft 498 kts 355°
2026-05-04 04:29 33.54801 114.47800 41152 ft 498 kts 356°
2026-05-04 04:29 33.61717 114.48454 41153 ft 498 kts 355°
2026-05-04 04:30 33.68634 114.49101 41153 ft 498 kts 355°
2026-05-04 04:30 33.75541 114.49743 41159 ft 496 kts 358°
2026-05-04 04:31 33.82386 114.50387 41162 ft 492 kts 358°
2026-05-04 04:31 33.89204 114.51030 41161 ft 491 kts 358°
2026-05-04 04:32 33.96016 114.51671 41162 ft 491 kts 358°
2026-05-04 04:32 34.02826 114.52313 41162 ft 491 kts 358°
2026-05-04 04:33 34.09628 114.52956 41159 ft 491 kts 358°
2026-05-04 04:33 34.16384 114.53596 41162 ft 490 kts 358°
2026-05-04 04:34 34.23198 114.54243 41159 ft 490 kts 358°
2026-05-04 04:34 34.29991 114.54889 41160 ft 490 kts 358°
2026-05-04 04:35 34.36788 114.55537 41157 ft 490 kts 358°
2026-05-04 04:35 34.43575 114.56185 41159 ft 489 kts 358°
2026-05-04 04:36 34.50361 114.56831 41154 ft 489 kts 358°
2026-05-04 04:36 34.57149 114.57473 41155 ft 489 kts 358°
2026-05-04 04:37 34.70692 114.58758 41154 ft 488 kts 358°
2026-05-04 04:38 34.77459 114.59402 41153 ft 487 kts 358°
2026-05-04 04:38 34.84217 114.60046 41159 ft 487 kts 358°
2026-05-04 04:39 34.90973 114.60692 41153 ft 487 kts 359°
2026-05-04 04:39 34.97722 114.61338 41154 ft 486 kts 359°
2026-05-04 04:40 35.04468 114.61985 41158 ft 486 kts 359°
2026-05-04 04:40 35.11204 114.62632 41156 ft 486 kts 359°
2026-05-04 04:41 35.17945 114.63279 41150 ft 486 kts 359°
2026-05-04 04:41 35.24635 114.63924 41151 ft 485 kts 359°
2026-05-04 04:42 35.31369 114.64575 41151 ft 485 kts 359°
2026-05-04 04:42 35.38100 114.65225 41147 ft 485 kts 359°
2026-05-04 04:43 35.44828 114.65876 41150 ft 485 kts 359°
2026-05-04 04:43 35.51559 114.66529 41150 ft 485 kts 359°
2026-05-04 04:44 35.58279 114.67181 41144 ft 485 kts 359°
2026-05-04 04:44 35.65002 114.67835 41142 ft 485 kts 359°
2026-05-04 04:45 35.71722 114.68491 41142 ft 484 kts 359°
2026-05-04 04:47 35.95223 114.70790 41144 ft 484 kts 359°
2026-05-04 04:47 36.01933 114.71450 41144 ft 483 kts 359°
2026-05-04 04:48 36.08627 114.72108 41142 ft 483 kts 359°
2026-05-04 04:49 36.25320 114.73742 41141 ft 482 kts 359°
2026-05-04 04:49 36.32005 114.74404 41139 ft 482 kts 359°
2026-05-04 04:50 36.38638 114.75935 41140 ft 492 kts 13°
2026-05-04 04:50 36.44996 114.79216 41133 ft 496 kts 19°
2026-05-04 04:51 36.51255 114.82845 41132 ft 497 kts 20°
2026-05-04 04:51 36.57496 114.86523 41129 ft 496 kts 20°
2026-05-04 04:52 36.63744 114.90180 41129 ft 496 kts 20°
2026-05-04 04:52 36.69991 114.93819 41124 ft 495 kts 20°
2026-05-04 04:53 36.76230 114.97453 41124 ft 495 kts 20°
2026-05-04 04:53 36.82465 115.01091 41122 ft 494 kts 20°
2026-05-04 04:54 36.88691 115.04732 41126 ft 494 kts 20°
2026-05-04 04:54 36.94915 115.08379 41127 ft 493 kts 20°
2026-05-04 04:55 37.01125 115.12024 41122 ft 493 kts 20°
2026-05-04 04:55 37.07325 115.15670 41124 ft 492 kts 20°
2026-05-04 04:56 37.13527 115.19324 41122 ft 492 kts 20°
2026-05-04 04:56 37.19717 115.22978 41116 ft 492 kts 20°
2026-05-04 04:57 37.25903 115.26636 41123 ft 491 kts 20°
2026-05-04 04:57 37.32088 115.30300 41114 ft 491 kts 20°
2026-05-04 04:58 37.38264 115.33966 41114 ft 491 kts 20°
2026-05-04 04:58 37.44395 115.37610 41117 ft 491 kts 20°
2026-05-04 04:59 37.50564 115.41284 41113 ft 490 kts 20°
2026-05-04 04:59 37.56733 115.44965 41112 ft 490 kts 20°
2026-05-04 05:00 37.62892 115.48647 41113 ft 490 kts 20°
2026-05-04 05:01 37.72137 115.54188 41113 ft 490 kts 20°
2026-05-04 05:01 37.78396 115.57446 41102 ft 482 kts 11°
2026-05-04 05:02 37.84940 115.58506 41112 ft 470 kts 355°
2026-05-04 05:02 37.91465 115.58216 41109 ft 468 kts 352°
2026-05-04 05:03 37.97959 115.57692 41103 ft 468 kts 352°
2026-05-04 05:04 38.10947 115.56716 41077 ft 468 kts 353°
2026-05-04 05:04 38.17452 115.56320 41078 ft 468 kts 353°
2026-05-04 05:06 38.39633 115.63373 41069 ft 487 kts 21°
2026-05-04 05:06 38.42659 115.65317 41068 ft 487 kts 21°
2026-05-04 05:07 38.48717 115.69209 41069 ft 487 kts 21°
2026-05-04 05:07 38.54777 115.73066 41066 ft 486 kts 21°
2026-05-04 05:09 38.75399 115.93223 41062 ft 501 kts 44°
2026-05-04 05:09 38.78460 115.97663 41066 ft 501 kts 44°
2026-05-04 05:10 38.82334 116.03276 41067 ft 501 kts 44°
2026-05-04 05:10 38.86961 116.09946 41069 ft 501 kts 43°
2026-05-04 05:11 38.91604 116.16622 41064 ft 501 kts 43°
2026-05-04 05:11 38.96241 116.23301 41064 ft 501 kts 43°
2026-05-04 05:12 39.00874 116.29989 41067 ft 501 kts 43°
2026-05-04 05:12 39.05503 116.36686 41063 ft 501 kts 44°
2026-05-04 05:13 39.10132 116.43399 41064 ft 501 kts 44°
2026-05-04 05:13 39.14753 116.50115 41063 ft 501 kts 44°
2026-05-04 05:14 39.19782 116.56195 41060 ft 492 kts 31°
2026-05-04 05:14 39.25744 116.60146 41064 ft 482 kts 18°
2026-05-04 05:15 39.32014 116.63179 41064 ft 481 kts 15°
2026-05-04 05:15 39.38325 116.66051 41066 ft 481 kts 15°
2026-05-04 05:16 39.44633 116.68944 41063 ft 481 kts 15°
2026-05-04 05:16 39.50924 116.71870 41058 ft 481 kts 15°
2026-05-04 05:17 39.57207 116.74815 41056 ft 480 kts 16°
2026-05-04 05:17 39.63496 116.77770 41049 ft 480 kts 16°
2026-05-04 05:18 39.69779 116.80726 41040 ft 480 kts 16°
2026-05-04 05:18 39.76084 116.83581 41039 ft 477 kts 11°
2026-05-04 05:19 39.82581 116.84691 41035 ft 468 kts 355°
2026-05-04 05:19 39.89015 116.83812 41038 ft 464 kts 349°
2026-05-04 05:20 39.95390 116.82537 41041 ft 464 kts 348°
2026-05-04 05:20 40.01762 116.81209 41038 ft 464 kts 348°
2026-05-04 05:21 40.08140 116.79907 41039 ft 464 kts 348°
2026-05-04 05:21 40.14516 116.78626 41037 ft 464 kts 348°
2026-05-04 05:22 40.20855 116.77356 41035 ft 464 kts 348°
2026-05-04 05:22 40.27230 116.76077 41036 ft 463 kts 348°
2026-05-04 05:23 40.33655 116.75187 41036 ft 467 kts 356°
2026-05-04 05:23 40.40164 116.75633 41033 ft 469 kts
2026-05-04 05:24 40.46674 116.76401 41037 ft 470 kts
2026-05-04 05:24 40.53174 116.77248 41026 ft 469 kts
2026-05-04 05:25 40.59672 116.78087 41021 ft 469 kts
2026-05-04 05:25 40.66173 116.78910 41022 ft 469 kts
2026-05-04 05:26 40.72676 116.79729 41009 ft 469 kts
2026-05-04 05:26 40.79181 116.80418 41011 ft 468 kts
2026-05-04 05:28 41.05137 116.81801 40993 ft 466 kts 359°
2026-05-04 05:29 41.11616 116.82139 40990 ft 466 kts 359°
2026-05-04 05:29 41.18092 116.82478 40983 ft 465 kts 359°
2026-05-04 05:31 41.43955 116.83841 40963 ft 464 kts 359°
2026-05-04 05:32 41.50409 116.84182 40962 ft 464 kts 359°
2026-05-04 05:33 41.60084 116.84902 40955 ft 467 kts
2026-05-04 05:33 41.66333 116.87379 40944 ft 475 kts 21°
2026-05-04 05:34 41.71773 116.92493 40939 ft 486 kts 41°
2026-05-04 05:34 41.75724 116.99921 40949 ft 497 kts 58°
2026-05-04 05:35 41.78718 117.08285 40953 ft 498 kts 61°
2026-05-04 05:35 41.81570 117.16751 40943 ft 498 kts 61°
2026-05-04 05:36 41.84438 117.25211 40943 ft 498 kts 61°
2026-05-04 05:36 41.87333 117.33654 40949 ft 498 kts 61°
2026-05-04 05:37 41.90233 117.42095 40950 ft 498 kts 61°
2026-05-04 05:37 41.93129 117.50545 40955 ft 498 kts 61°
2026-05-04 05:38 41.97460 117.63243 40941 ft 498 kts 61°
2026-05-04 05:38 42.00318 117.71656 40941 ft 498 kts 61°
2026-05-04 05:39 42.04623 117.84376 40942 ft 498 kts 61°
2026-05-04 05:40 42.08939 117.97186 40933 ft 499 kts 61°
2026-05-04 05:40 42.11778 118.05643 40928 ft 499 kts 61°
2026-05-04 05:41 42.14629 118.14163 40921 ft 499 kts 61°
2026-05-04 05:41 42.17476 118.22693 40919 ft 499 kts 61°
2026-05-04 05:42 42.20408 118.31168 40911 ft 498 kts 59°
2026-05-04 05:42 42.23474 118.39551 40904 ft 498 kts 59°
2026-05-04 05:43 42.26544 118.47922 40895 ft 498 kts 59°
2026-05-04 05:45 42.38679 118.81623 40871 ft 498 kts 59°
2026-05-04 05:47 42.50705 119.15461 40855 ft 499 kts 59°
2026-05-04 05:47 42.53697 119.23947 40849 ft 499 kts 59°
2026-05-04 05:48 42.56683 119.32437 40847 ft 499 kts 59°
2026-05-04 05:48 42.59663 119.40939 40841 ft 499 kts 59°
2026-05-04 05:49 42.62639 119.49456 40834 ft 499 kts 59°
2026-05-04 05:49 42.65612 119.57989 40834 ft 500 kts 59°
2026-05-04 05:51 42.77449 119.92230 40823 ft 501 kts 60°
2026-05-04 05:52 42.79900 119.99370 40826 ft 501 kts 60°
2026-05-04 05:52 42.83338 120.09422 40818 ft 501 kts 60°
2026-05-04 05:54 42.94564 120.42502 40812 ft 502 kts 60°
2026-05-04 05:55 42.97498 120.51146 40813 ft 502 kts 59°
2026-05-04 05:55 43.00544 120.59712 40806 ft 501 kts 59°
2026-05-04 05:56 43.03622 120.68269 40813 ft 502 kts 59°
2026-05-04 05:56 43.06664 120.76783 40800 ft 502 kts 59°
2026-05-04 05:57 43.09732 120.85429 40799 ft 502 kts 59°
2026-05-04 05:57 43.12750 120.93976 40791 ft 502 kts 59°
2026-05-04 05:58 43.15783 121.02592 40788 ft 502 kts 59°
2026-05-04 05:58 43.18810 121.11214 40789 ft 502 kts 59°
2026-05-04 05:59 43.21832 121.19851 40788 ft 503 kts 59°
2026-05-04 05:59 43.24848 121.28496 40784 ft 503 kts 59°
2026-05-04 06:00 43.27859 121.37157 40784 ft 503 kts 59°
2026-05-04 06:00 43.30854 121.45795 40782 ft 503 kts 59°
2026-05-04 06:01 43.33860 121.54494 40783 ft 503 kts 59°
2026-05-04 06:03 43.45781 121.89268 40782 ft 502 kts 60°
2026-05-04 06:05 43.60044 122.27503 40768 ft 494 kts 51°
2026-05-04 06:06 43.64024 122.35225 40766 ft 493 kts 50°
2026-05-04 06:06 43.68046 122.42903 40764 ft 493 kts 50°
2026-05-04 06:07 43.72057 122.50588 40766 ft 493 kts 50°
2026-05-04 06:07 43.76053 122.58293 40760 ft 493 kts 50°
2026-05-04 06:08 43.80039 122.66008 40762 ft 493 kts 50°
2026-05-04 06:08 43.84020 122.73737 40756 ft 493 kts 50°
2026-05-04 06:09 43.87994 122.81471 40757 ft 493 kts 50°
2026-05-04 06:11 44.04088 123.12253 40746 ft 492 kts 49°
2026-05-04 06:13 44.20217 123.42959 40748 ft 492 kts 49°
2026-05-04 06:14 44.34289 123.70028 40746 ft 492 kts 50°
2026-05-04 06:15 44.38300 123.77791 40747 ft 492 kts 50°
2026-05-04 06:15 44.42296 123.85548 40748 ft 493 kts 50°
2026-05-04 06:16 44.46306 123.93335 40744 ft 493 kts 50°
2026-05-04 06:16 44.50348 124.01086 40743 ft 492 kts 49°
2026-05-04 06:17 44.54553 124.08515 40746 ft 487 kts 41°
2026-05-04 06:17 44.59870 124.14148 40739 ft 475 kts 24°
2026-05-04 06:18 44.65811 124.18137 40751 ft 473 kts 20°
2026-05-04 06:18 44.68747 124.20248 40614 ft 473 kts 26°
2026-05-04 06:20 44.83878 124.45381 35383 ft 483 kts 47°
2026-05-04 06:20 44.85839 124.49203 34582 ft 479 kts 46°
2026-05-04 06:21 44.93606 124.64193 30963 ft 469 kts 46°
2026-05-04 06:21 44.95526 124.67893 30054 ft 467 kts 46°
2026-05-04 06:22 44.97442 124.71604 29120 ft 465 kts 47°
2026-05-04 06:22 44.99326 124.75278 28402 ft 458 kts 47°
2026-05-04 06:25 45.21737 125.19277 20468 ft 404 kts 48°
2026-05-04 06:25 45.23375 125.22519 19862 ft 402 kts 48°
2026-05-04 06:26 45.24993 125.25724 19273 ft 399 kts 48°
2026-05-04 06:26 45.26606 125.28923 18674 ft 397 kts 48°
2026-05-04 06:26 45.28212 125.32111 18065 ft 396 kts 48°
2026-05-04 06:26 45.29809 125.35284 17406 ft 394 kts 49°
2026-05-04 06:27 45.36087 125.47791 14944 ft 383 kts 49°
2026-05-04 06:28 45.37625 125.50863 14334 ft 380 kts 49°
2026-05-04 06:28 45.39147 125.53908 13723 ft 377 kts 49°
2026-05-04 06:28 45.40658 125.56929 13076 ft 374 kts 49°
2026-05-04 06:28 45.42168 125.59948 12452 ft 372 kts 49°
2026-05-04 06:29 45.43621 125.62975 11846 ft 371 kts 51°
2026-05-04 06:29 45.45049 125.66035 11324 ft 366 kts 51°
2026-05-04 06:29 45.46409 125.68985 11202 ft 347 kts 51°
2026-05-04 06:29 45.47690 125.71761 11049 ft 331 kts 51°
2026-05-04 06:30 45.48941 125.74463 10928 ft 315 kts 51°
2026-05-04 06:30 45.50106 125.76977 10790 ft 303 kts 51°
2026-05-04 06:30 45.51266 125.79477 10672 ft 301 kts 50°
2026-05-04 06:30 45.52418 125.81956 10548 ft 302 kts 51°
2026-05-04 06:31 45.53579 125.84465 10417 ft 302 kts 51°
2026-05-04 06:31 45.54735 125.86965 10190 ft 301 kts 51°
2026-05-04 06:31 45.55880 125.89450 9964 ft 297 kts 51°
2026-05-04 06:31 45.57028 125.91945 9792 ft 299 kts 51°
2026-05-04 06:32 45.58174 125.94433 9507 ft 300 kts 51°
2026-05-04 06:33 45.66908 126.10526 7429 ft 282 kts 36°
2026-05-04 06:34 45.68399 126.12269 7294 ft 271 kts 36°
2026-05-04 06:34 45.69832 126.13944 7183 ft 261 kts 36°
2026-05-04 06:34 45.71213 126.15556 7065 ft 252 kts 36°
2026-05-04 06:34 45.72544 126.17113 6936 ft 244 kts 36°
2026-05-04 06:35 45.73850 126.18634 6728 ft 240 kts 36°
2026-05-04 06:36 45.82450 126.29450 5025 ft 240 kts 69°
2026-05-04 06:37 45.82495 126.31823 4721 ft 238 kts 108°
2026-05-04 06:37 45.81640 126.33814 4531 ft 232 kts 133°
2026-05-04 06:37 45.80572 126.35520 4395 ft 227 kts 135°
2026-05-04 06:37 45.79535 126.37169 4349 ft 219 kts 134°
2026-05-04 06:38 45.78552 126.38782 4318 ft 211 kts 133°
2026-05-04 06:38 45.77552 126.40255 4221 ft 202 kts 147°
2026-05-04 06:40 45.70815 126.34982 2385 ft 148 kts 224°
2026-05-04 06:40 45.70048 126.34081 2161 ft 137 kts 224°
2026-05-04 06:40 45.69346 126.33254 1995 ft 126 kts 225°
2026-05-04 06:40 45.68688 126.32477 1833 ft 118 kts 225°
2026-05-04 06:41 45.68056 126.31732 1683 ft 118 kts 225°
2026-05-04 06:41 45.67421 126.30986 1504 ft 116 kts 224°
2026-05-04 06:41 45.66797 126.30251 1365 ft 117 kts 225°
2026-05-04 06:41 45.66160 126.29499 1184 ft 120 kts 224°
2026-05-04 06:42 45.65519 126.28750 1022 ft 118 kts 226°
2026-05-04 06:42 45.64878 126.27991 848 ft 122 kts 224°
2026-05-04 06:42 45.64211 126.27212 682 ft 124 kts 222°
2026-05-04 06:44 45.61960 126.24397 466 ft 19 kts 248°
2026-05-04 06:44 45.61905 126.24220 467 ft 20 kts 243°
2026-05-04 06:44 45.61812 126.24087 468 ft 19 kts 218°
2026-05-04 06:45 45.61704 126.23960 466 ft 21 kts 221°
2026-05-04 06:45 45.61586 126.23819 468 ft 23 kts 218°
2026-05-04 06:45 45.61452 126.23669 471 ft 26 kts 218°
2026-05-04 06:45 45.61309 126.23495 471 ft 28 kts 222°
2026-05-04 06:46 45.61175 126.23336 471 ft 19 kts 220°
2026-05-04 06:46 45.61165 126.23232 472 ft 9 kts 296°
2026-05-04 06:46 45.61215 126.23138 473 ft 16 kts 309°
2026-05-04 06:46 45.61293 126.23051 473 ft 3 kts
2026-05-04 06:48 45.61342 126.23110 472 ft 0 kts 39°